Stations météo

réclame
Mon MeteoGroup
Kiel/Holtenau (AWS), Allemagne (10046): Température de l'air & dewpoint: 09.09.2019 12:00:00 - 15.09.2019 12:00:00 (CEST)Kiel/Holtenau (AWS), Allemagne (10046): Température de l'air 5cm & Température de l'air -5cm: 09.09.2019 12:00:00 - 15.09.2019 12:00:00 (CEST)Kiel/Holtenau (AWS), Allemagne (10046): Température de l'air -20cm & Température de l'air -100cm: 09.09.2019 12:00:00 - 15.09.2019 12:00:00 (CEST)Kiel/Holtenau (AWS), Allemagne (10046): Vitesse du vent & gusts: 09.09.2019 12:00:00 - 15.09.2019 12:00:00 (CEST)Kiel/Holtenau (AWS), Allemagne (10046): Direction du vent: 09.09.2019 12:00:00 - 15.09.2019 12:00:00 (CEST)Kiel/Holtenau (AWS), Allemagne (10046): reduced air pressure: 09.09.2019 12:00:00 - 15.09.2019 12:00:00 (CEST)Kiel/Holtenau (AWS), Allemagne (10046): visibility: 09.09.2019 12:00:00 - 15.09.2019 12:00:00 (CEST)Kiel/Holtenau (AWS), Allemagne (10046): Quantités de précipitations: 09.09.2019 12:00:00 - 15.09.2019 12:00:00 (CEST)
Date & Time tt [°C] td [°C] tt 5cm [°C] tt -5cm [°C] tt -20cm [°C] tt -100cm [°C] ff [km/h] ff [knt] fx [km/h] fx [knt] dd ppp [hPa] vv [km] rr [mm]
15.09.2019 12:00:00 15,2 14,5 15,1 14,9 13,2 15,7 15 8 47 26 W 1016,7 2,9 0,2
15.09.2019 11:00:00 15,5 12,5 15,5 14,0 12,9 15,7 20 11 37 20 WSW 1016,5 24 0,0
15.09.2019 10:00:00 14,4 10,2 14,9 13,1 12,8 15,7 17 9 38 21 WSW 1016,7 23 0,0
15.09.2019 09:00:00 13,6 8,8 13,4 11,5 12,7 15,7 19 11 36 20 WSW 1017,0 25 0,0
15.09.2019 08:00:00 13,0 7,8 11,7 10,2 12,8 15,7 18 10 39 21 WSW 1017,6 45 0,0
15.09.2019 07:00:00 12,3 7,2 11,0 9,8 13,0 15,7 16 9 37 20 SW 1018,0 51 0,0
15.09.2019 06:00:00 12,1 7,1 10,7 9,9 13,2 15,7 17 9 39 21 SW 1019,0 55 0,0
15.09.2019 05:00:00 12,3 7,5 11,0 10,2 13,3 15,7 15 8 31 17 SW 1020,2 42 0,0
15.09.2019 04:00:00 12,3 7,7 11,3 10,3 13,5 15,7 13 7 25 14 SW 1021,1 46 0,0
15.09.2019 03:00:00 12,1 8,0 10,6 10,4 13,7 15,7 11 6 26 14 SW 1022,6 54 0,0
15.09.2019 02:00:00 12,0 8,5 10,7 10,6 14,0 15,8 11 6 20 11 SW 1023,3 43 0,0
15.09.2019 01:00:00 11,8 8,7 10,4 10,7 14,2 15,8 9 5 17 9 SSW 1024,7 40 0,0
15.09.2019 00:00:00 11,8 8,4 10,6 11,1 14,5 15,8 8 4 19 10 SW 1025,7 40 0,0
14.09.2019 23:00:00 11,8 8,5 10,5 11,4 14,9 15,8 8 4 15 8 SW 1026,8 37 0,0
14.09.2019 22:00:00 11,8 8,4 9,7 11,9 15,3 15,8 6 4 13 7 SW 1027,7 41 0,0
14.09.2019 21:00:00 12,7 8,3 10,0 12,7 15,6 15,8 6 3 15 8 SW 1028,4 44 0,0
14.09.2019 20:00:00 13,8 8,5 11,7 13,8 16,0 15,8 9 5 16 9 WSW 1029,1 31 0,0
14.09.2019 19:00:00 15,3 8,5 13,3 15,4 16,1 15,8 10 5 23 13 WSW 1029,2 60 0,0
14.09.2019 18:00:00 16,9 8,5 16,2 17,0 16,2 15,8 18 10 29 16 W 1030,2 18 0,0
14.09.2019 17:00:00 17,4 7,5 16,7 19,0 16,0 15,8 14 8 27 15 WSW 1030,6 16 0,0
14.09.2019 16:00:00 17,4 6,3 18,5 20,2 15,6 15,8 15 8 27 14 W 1031,4 13 0,0
14.09.2019 15:00:00 16,9 7,1 18,5 20,7 15,0 15,8 16 9 32 17 W 1032,4 22 0,0
14.09.2019 14:00:00 17,3 6,9 19,5 20,4 14,4 15,8 16 9 26 14 W 1032,9 9 0,0
14.09.2019 13:00:00 15,9 8,0 17,0 18,6 13,8 15,8 15 8 23 13 W 1033,7 17 0,0
14.09.2019 12:00:00 16,0 8,7 18,3 18,2 13,1 15,9 12 7 23 12 W 1033,8 34 0,0
14.09.2019 11:00:00 14,9 8,6 16,7 16,0 12,6 15,9 12 6 22 12 W 1034,4 16 0,0
14.09.2019 10:00:00 13,7 9,3 14,9 12,8 12,3 15,9 8 5 14 8 WSW 1034,4 9 0,0
14.09.2019 09:00:00 11,4 8,8 12,0 10,9 12,3 15,8 7 4 13 7 WSW 1034,3 16 0,0
14.09.2019 08:00:00 8,7 7,9 7,9 8,3 12,4 15,8 5 3 10 5 SSW 1034,2 29 0,0
14.09.2019 07:00:00 8,3 7,7 6,4 8,2 12,7 15,9 6 3 9 5 WSW 1034,0 29 0,0
14.09.2019 06:00:00 8,4 7,7 6,3 8,2 12,9 15,9 7 4 11 6 WSW 1034,0 23 0,0
14.09.2019 05:00:00 8,7 8,0 6,9 8,5 13,2 15,9 8 4 11 6 WSW 1034,0 27 0,0
14.09.2019 04:00:00 8,1 7,2 5,6 9,0 13,5 15,9 6 3 11 6 W 1034,3 27 0,0
14.09.2019 03:00:00 9,7 8,3 7,4 9,6 13,7 15,8 8 4 11 6 W 1034,3 31 0,0
14.09.2019 02:00:00 9,9 8,6 8,2 9,7 14,0 15,8 6 4 13 7 WSW 1034,3 35 0,0
14.09.2019 01:00:00 9,7 8,7 7,7 9,7 14,4 15,8 8 4 12 6 WSW 1034,2 27 0,0
14.09.2019 00:00:00 10,1 8,8 7,3 10,2 14,7 15,8 7 4 10 5 W 1034,1 30 0,0
13.09.2019 23:00:00 10,7 8,8 7,7 10,8 15,1 15,8 8 4 12 7 W 1033,7 40 0,0
13.09.2019 22:00:00 11,8 8,8 9,0 11,5 15,5 15,9 8 4 15 8 W 1033,1 43 0,0
13.09.2019 21:00:00 12,7 8,6 10,7 12,3 15,9 15,9 12 7 16 9 W 1032,8 44 0,0
13.09.2019 20:00:00 13,3 8,0 11,4 13,3 16,2 15,9 15 8 24 13 WNW 1032,4 45 0,0
13.09.2019 19:00:00 14,6 8,0 13,4 14,6 16,4 15,9 15 8 39 21 WNW 1031,6 53 0,0
13.09.2019 18:00:00 16,3 8,5 15,7 15,9 16,6 15,9 26 14 40 22 WNW 1031,3 21 0,0
13.09.2019 17:00:00 16,8 8,4 16,1 16,9 16,7 15,9 24 13 43 23 WNW 1031,3 19 0,0
13.09.2019 16:00:00 17,7 7,5 18,5 18,4 16,6 15,9 27 15 39 21 WNW 1030,9 8 0,0
13.09.2019 15:00:00 18,0 8,9 19,0 18,5 16,5 15,9 23 12 34 18 NW 1030,5 22 0,0
13.09.2019 14:00:00 17,1 10,0 17,8 18,7 16,2 15,9 25 14 38 21 NW 1030,0 20 0,0
13.09.2019 13:00:00 17,0 8,7 18,8 19,6 15,9 15,9 22 12 36 20 WNW 1029,3 9 0,0
13.09.2019 12:00:00 16,3 8,6 17,1 18,2 15,7 15,9 26 14 40 22 NW 1029,1 50 0,0
13.09.2019 11:00:00 16,6 10,8 18,3 17,5 15,5 15,9 26 14 39 21 NW 1028,3 22 0,0
13.09.2019 10:00:00 15,9 12,2 17,5 16,2 15,5 15,9 21 12 34 18 NW 1026,9 14 0,0
13.09.2019 09:00:00 14,9 12,5 14,7 15,5 15,5 15,9 16 9 25 13 NW 1025,8 58 0,0
13.09.2019 08:00:00 14,9 13,3 14,6 15,2 15,4 15,9 19 10 36 20 NNW 1024,7 70 1,7
13.09.2019 07:00:00 16,9 15,7 16,3 15,7 15,4 15,9 20 11 35 19 W 1022,5 28 0,3
13.09.2019 06:00:00 16,7 16,1 16,2 15,5 15,4 15,9 14 7 29 16 WSW 1021,7 12 0,2
13.09.2019 05:00:00 16,3 15,4 15,7 15,2 15,3 15,9 14 7 29 15 SW 1021,6 4,5 0,8
13.09.2019 04:00:00 16,0 14,6 15,1 15,0 15,4 15,9 12 6 26 14 SW 1022,0 10 0,4
13.09.2019 03:00:00 16,1 14,1 15,0 14,8 15,4 15,9 13 7 27 14 SW 1022,5 11 0,0
13.09.2019 02:00:00 16,2 13,0 15,7 14,6 15,5 15,9 13 7 26 14 SW 1023,1 32 0,0
13.09.2019 01:00:00 16,1 13,0 15,6 14,6 15,6 15,9 11 6 21 12 SW 1023,5 31 0,0
13.09.2019 00:00:00 16,0 13,0 15,3 14,6 15,7 15,9 10 5 24 13 WSW 1024,0 33 0,0
12.09.2019 23:00:00 15,2 12,1 14,7 14,4 15,9 15,9 8 4 17 9 SW 1024,6 34 0,0
12.09.2019 22:00:00 15,0 12,1 14,1 14,4 16,1 15,9 8 4 18 10 SSW 1024,7 31 0,0
12.09.2019 21:00:00 15,3 12,3 13,4 14,7 16,4 15,9 7 4 17 9 SW 1024,9 30 0,0
12.09.2019 20:00:00 15,9 12,2 14,0 15,5 16,6 15,9 8 4 21 11 WSW 1024,9 35 0,0
12.09.2019 19:00:00 17,5 11,8 16,2 16,7 16,8 15,9 14 8 29 16 WSW 1024,6 26 0,0
12.09.2019 18:00:00 18,3 11,2 17,2 17,6 16,8 15,9 21 11 39 21 W 1024,6 19 0,0
12.09.2019 17:00:00 17,9 12,5 17,9 18,8 16,7 15,9 15 8 36 19 W 1024,6 22 0,0
12.09.2019 16:00:00 18,6 12,4 19,5 20,4 16,4 15,9 21 12 37 20 W 1024,8 12 0,0
12.09.2019 15:00:00 18,7 12,5 19,9 19,7 16,1 15,9 19 10 36 19 W 1024,6 15 0,0
12.09.2019 14:00:00 18,0 13,2 19,5 20,2 15,8 15,9 14 7 31 17 WSW 1024,6 38 0,0
12.09.2019 13:00:00 17,7 13,6 18,6 19,5 15,3 15,9 14 8 28 15 WSW 1024,5 28 0,0
12.09.2019 12:00:00 17,2 13,9 18,8 19,0 14,9 15,9 11 6 20 11 SW 1024,3 19 0,0
12.09.2019 11:00:00 16,2 14,2 16,9 18,1 14,5 15,9 11 6 26 14 WSW 1024,3 17 0,0
12.09.2019 10:00:00 16,2 14,0 17,6 17,3 14,1 15,9 12 6 22 12 SW 1023,5 13 0,0
12.09.2019 09:00:00 14,6 14,0 15,0 14,3 14,0 16,0 9 5 16 9 SW 1023,0 8 0,0
12.09.2019 08:00:00 13,9 13,5 13,5 12,9 14,0 16,0 6 4 11 6 WSW 1022,6 5 0,0
12.09.2019 07:00:00 13,1 12,9 12,7 12,1 14,1 16,0 5 3 11 6 SW 1022,0 4,1 0,0
12.09.2019 06:00:00 12,8 12,5 12,1 11,6 14,3 16,0 8 4 14 7 SW 1021,3 8 0,0
12.09.2019 05:00:00 12,7 12,5 10,7 11,9 14,5 16,0 6 3 15 8 SW 1021,0 5 0,0
12.09.2019 04:00:00 13,3 12,8 12,6 12,7 14,6 16,0 9 5 18 10 SW 1020,7 10 0,0
12.09.2019 03:00:00 13,3 12,8 12,2 12,6 14,8 16,0 7 4 18 10 SW 1020,0 7 0,0
12.09.2019 02:00:00 13,9 13,5 12,6 13,1 15,0 16,0 10 5 19 11 WSW 1019,7 6 0,0
12.09.2019 01:00:00 14,4 13,9 13,4 13,8 15,1 16,0 11 6 21 11 WSW 1018,8 7 0,0
12.09.2019 00:00:00 14,5 13,9 14,2 14,3 15,2 16,0 11 6 26 14 WSW 1018,4 8 0,0
11.09.2019 23:00:00 14,0 13,4 13,7 14,3 15,3 16,0 11 6 36 19 SW 1017,7 6 0,7
11.09.2019 22:00:00 13,5 12,9 13,2 14,2 15,4 16,0 14 8 32 17 SW 1017,5 1,7 0,4
11.09.2019 21:00:00 13,3 12,7 13,0 14,4 15,6 16,0 17 9 37 20 SW 1017,0 5 0,2
11.09.2019 20:00:00 13,6 13,0 13,3 14,9 15,7 16,0 18 10 38 20 SW 1016,9 2,2 0,9
11.09.2019 19:00:00 14,3 13,1 13,8 15,5 15,9 16,1 16 8 37 20 SW 1016,9 3,2 0,7
11.09.2019 18:00:00 16,0 11,6 14,3 15,9 16,0 16,1 17 9 44 24 SW 1016,8 13 0,0
11.09.2019 17:00:00 17,2 10,9 16,9 16,2 16,1 16,1 21 12 47 26 SW 1016,7 27 0,0
11.09.2019 16:00:00 17,3 11,4 16,3 17,4 16,0 16,1 17 9 37 20 SW 1017,1 27 0,0
11.09.2019 15:00:00 18,3 10,7 18,7 19,3 15,7 16,1 16 9 44 24 SW 1017,1 38 0,0
11.09.2019 14:00:00 18,5 10,4 19,0 20,0 15,2 16,1 17 9 46 25 SW 1017,2 30 0,0
11.09.2019 13:00:00 18,4 10,4 20,0 20,1 14,6 16,1 20 11 45 24 SW 1017,6 19 0,0
11.09.2019 12:00:00 17,9 11,3 20,7 19,6 14,0 16,1 16 8 40 21 SW 1017,7 8 0,0
11.09.2019 11:00:00 16,1 10,8 18,2 17,6 13,5 16,1 15 8 40 22 SSW 1018,0 7 0,0
11.09.2019 10:00:00 14,6 10,9 16,3 15,0 13,1 16,1 14 7 29 16 SSW 1018,2 8 0,0
11.09.2019 09:00:00 12,5 10,0 13,5 12,4 13,1 16,1 11 6 24 13 SW 1018,4 8 0,0
11.09.2019 08:00:00 10,8 9,4 10,7 10,2 13,2 16,1 11 6 19 10 SSW 1018,3 7 0,0
11.09.2019 07:00:00 10,3 9,5 9,3 10,0 13,4 16,1 9 5 18 10 SW 1018,2 6 0,0
11.09.2019 06:00:00 10,9 10,3 9,8 10,3 13,6 16,1 10 5 18 10 SSW 1018,1 5 0,0
11.09.2019 05:00:00 11,4 10,8 10,3 10,9 13,8 16,1 7 4 16 9 SW 1018,2 6 0,0
11.09.2019 04:00:00 11,7 11,2 10,9 10,9 14,0 16,1 9 5 16 9 SW 1018,1 8 0,0
11.09.2019 03:00:00 11,4 10,6 10,3 10,9 14,2 16,2 7 4 16 9 SW 1018,1 26 0,0
11.09.2019 02:00:00 11,9 10,9 10,6 11,3 14,5 16,2 8 5 17 9 SW 1017,8 34 0,0
11.09.2019 01:00:00 12,3 11,0 10,8 11,7 14,7 16,2 10 5 17 9 WSW 1017,5 31 0,0
11.09.2019 00:00:00 13,0 11,6 11,7 12,3 14,9 16,2 11 6 19 10 WSW 1017,4 32 0,0
10.09.2019 23:00:00 13,3 11,7 11,6 12,7 15,2 16,2 10 5 23 12 WSW 1016,8 30 0,0
10.09.2019 22:00:00 14,0 12,0 12,5 13,4 15,4 16,2 11 6 24 13 W 1016,4 34 0,0
10.09.2019 21:00:00 14,6 12,5 13,6 14,3 15,5 16,2 14 7 27 15 W 1015,9 40 0,0
10.09.2019 20:00:00 14,9 11,8 14,4 14,8 15,6 16,2 20 11 29 16 W 1015,3 70 0,0
10.09.2019 19:00:00 15,0 12,3 14,7 15,3 15,7 16,2 20 11 32 17 W 1014,9 69 0,0
10.09.2019 18:00:00 14,8 12,4 14,4 15,8 15,8 16,2 24 13 39 21 W 1014,3 51 0,2
10.09.2019 17:00:00 15,0 13,2 14,3 16,5 15,7 16,2 20 11 32 18 W 1013,7 6 0,0
10.09.2019 16:00:00 15,4 12,5 14,8 16,9 15,6 16,2 19 10 48 26 W 1013,5 23 0,2
10.09.2019 15:00:00 16,6 12,9 17,1 17,8 15,4 16,3 23 13 36 19 W 1012,8 33 0,0
10.09.2019 14:00:00 15,1 12,6 14,4 16,6 15,2 16,3 26 14 48 26 W 1012,6 29 0,3
10.09.2019 13:00:00 17,7 12,1 19,2 19,6 14,8 16,3 26 14 42 23 W 1011,9 23 0,0
10.09.2019 12:00:00 16,5 12,9 17,7 17,6 14,4 16,3 24 13 43 23 W 1011,9 18 0,0
10.09.2019 11:00:00 15,8 13,1 16,5 16,4 14,1 16,3 22 12 33 18 W 1011,8 32 0,0
10.09.2019 10:00:00 14,5 12,9 15,0 14,7 13,9 16,3 16 9 29 16 W 1011,6 30 0,0
10.09.2019 09:00:00 13,4 12,4 13,5 13,3 13,9 16,3 15 8 27 15 W 1011,6 11 0,0
10.09.2019 08:00:00 12,4 11,4 12,2 12,4 13,9 16,3 13 7 22 12 W 1011,4 10 0,0
10.09.2019 07:00:00 11,9 10,8 11,4 12,0 14,0 16,3 15 8 23 12 W 1011,3 14 0,0
10.09.2019 06:00:00 11,8 10,8 11,2 12,1 14,1 16,3 13 7 21 12 W 1011,2 16 0,1
10.09.2019 05:00:00 11,8 10,8 11,3 12,3 14,2 16,3 12 7 21 11 W 1011,3 19 0,3
10.09.2019 04:00:00 12,0 10,8 11,5 12,4 14,4 16,3 13 7 22 12 WNW 1011,5 15 0,4
10.09.2019 03:00:00 12,2 10,9 11,6 12,6 14,5 16,3 17 9 26 14 WNW 1011,6 19 0,8
10.09.2019 02:00:00 12,3 11,2 11,8 12,7 14,6 16,3 17 9 24 13 WNW 1011,6 12 1,4
10.09.2019 01:00:00 12,2 11,6 11,9 12,8 14,8 16,3 13 7 19 11 WNW 1011,9 5 3,4
10.09.2019 00:00:00 12,2 11,5 12,0 13,0 15,0 16,4 13 7 20 11 WNW 1012,1 4,0 3,4
09.09.2019 23:00:00 12,3 11,6 12,0 13,1 15,2 16,4 12 7 19 10 WNW 1012,2 6 1,5
09.09.2019 22:00:00 12,4 11,4 11,9 13,3 15,4 16,4 13 7 16 9 WNW 1012,4 14 1,2
09.09.2019 21:00:00 12,4 11,3 11,9 13,6 15,6 16,4 11 6 19 10 WNW 1012,4 11 1,2
09.09.2019 20:00:00 12,8 11,6 12,3 14,2 15,8 16,4 11 6 15 8 NW 1012,6 13 1,7
09.09.2019 19:00:00 13,2 11,3 12,4 15,0 16,0 16,4 9 5 13 7 NNW 1012,5 9 1,8
09.09.2019 18:00:00 13,9 12,1 13,2 15,8 16,0 16,4 5 3 14 8 N 1012,7 8 0,8
09.09.2019 17:00:00 15,1 11,7 14,4 16,8 16,0 16,4 11 6 22 12 NNE 1012,4 22 0,0
09.09.2019 16:00:00 15,8 11,0 16,5 17,6 15,8 16,4 12 6 20 11 NE 1012,6 51 0,0
09.09.2019 15:00:00 16,5 11,2 17,9 18,2 15,5 16,4 16 9 20 11 NE 1013,1 49 0,0
09.09.2019 14:00:00 16,6 11,5 18,5 18,7 15,2 16,4 10 5 15 8 NNE 1013,3 48 0,0
09.09.2019 13:00:00 16,5 12,1 17,9 17,6 14,8 16,4 8 5 13 7 NNE 1013,5 60 0,0
09.09.2019 12:00:00 16,3 12,5 17,6 17,3 14,4 16,4 9 5 14 8 NE 1014,0 44 0,0

tt = Température de l'air
td = dewpoint
tt 5cm = Température de l'air 5cm
tt -5cm = Température de l'air -5cm
tt -20cm = Température de l'air -20cm
tt -100cm = Température de l'air -100cm
ff = Vitesse du vent
fx = gusts
dd = Direction du vent
ppp = reduced air pressure
vv = visibility
rr = Quantités de précipitations

stations d'obs. à proximité